Regional Weather Roundup
Issued by NWS State College, PA

Home | Current Version | Previous Version | Graphics & Text | Print | Product List | Glossary Off
Versions: 1 2 3 4 5 6 7 8 9 10 11 12 13 14 15 16 17 18 19 20 21 22 23 24 25 26 27 28 29 30 31 32 33 34 35 36 37 38 39 40 41 42 43 44 45 46 47 48 49 50

000
ASUS41 KCTP 011810
RWRCTP

REGIONAL WEATHER ROUNDUP
NATIONAL WEATHER SERVICE STATE COLLEGE PA
200 PM EDT MON SEP 01 2014

Note: "fair" indicates few or no clouds below 12,000 feet with no
significant weather and/or obstructions to visibility.

* = STATION THAT DOES NOT REPORT PRECIPITATION /E.G. RAIN...SNOW...ETC/
    THUNDER OR FOG.

PAZ002>004-007>009-013>016-020>023-029>032-011900-
WESTERN PENNSYLVANIA

CITY           SKY/WX    TMP DP  RH WIND       PRES   REMARKS
ERIE           MOSUNNY   83  68  60 SW12      29.92F
MEADVILLE      MOSUNNY   77  67  71 VRB7      29.97F
FRANKLIN*      CLOUDY    77  68  73 SW8       30.01F
NEW CASTLE     FAIR      83  72  69 SW8       29.98F
BEAVER COUNTY  NOT AVBL
BUTLER*        PTSUNNY   79  70  73 SW9       30.01F
PITTSBURGH INT PTSUNNY   79  69  71 SW9       30.00F
PITTSBURGH     MOSUNNY   80  68  66 SW14      30.00F
INDIANA*       PTSUNNY   79  72  78 W13       30.06S
LATROBE        PTSUNNY   79  73  83 SW12      30.04S
WASHINGTON CO* PTSUNNY   81  72  74 SW10      30.03F
$$

PAZ004>006-010>012-017>019-024>028-033>037-041-042-045-046-049>053-011900-
CENTRAL PENNSYLVANIA

CITY           SKY/WX    TMP DP  RH WIND       PRES   REMARKS
BRADFORD       CLOUDY    74  66  76 S7        30.03F
DUBOIS         CLOUDY    74  70  87 SW7       30.02F
CLEARFIELD     CLOUDY    75  69  81 VRB3      30.03S
JOHNSTOWN      PTSUNNY   74  69  85 W15G21    30.07S
ALTOONA        SUNNY     81  70  69 W9        30.03F
STATE COLLEGE  CLOUDY    77  70  78 CALM      30.02F
WILLIAMSPORT   PTSUNNY   83  70  64 SE6       29.96F
SELINSGROVE    PTSUNNY   84  72  67 S9        29.98F
FT INDIANTOWN  PTSUNNY   82  70  65 W6        29.99F
CAPITAL CITY   PTSUNNY   82  69  64 CALM      29.98F
HARRISBURG     PTSUNNY   83  70  64 CALM      29.98F
YORK           PTSUNNY   83  73  72 NW6       29.99F
$$

PAZ038>040-043-044-047-048-054-055-060>062-067>071-011900-
EASTERN PENNSYLVANIA

CITY           SKY/WX    TMP DP  RH WIND       PRES   REMARKS
SCRANTON       CLOUDY    82  67  60 SW10      30.00F
MOUNT POCONO   PTSUNNY   78  67  68 W9        30.05F
ALLENTOWN      PTSUNNY   86  68  54 SW8       29.98F
QUAKERTOWN*    CLOUDY    84  72  65 MISG      30.00F
READING        CLOUDY    86  71  60 W7        29.97F
LANCASTER      MOSUNNY   83  69  62 SW5       29.99F
COATESVILLE    MOCLDY    82  77  83 SW6       30.01F
POTTSTOWN      CLOUDY    83  70  64 W5        30.00F
BLUE BELL      MOSUNNY   86  73  66 W6        29.97F
DOYLESTOWN     PTSUNNY   84  70  62 SW9       29.97F
WILLOW GROVE   NOT AVBL
NORTH PHILA    PTSUNNY   89  70  53 W7        29.98F
PHILADELPHIA   MOSUNNY   87  70  56 SW10      29.98F
$$



USA.gov is the U.S. government's official web portal to all federal, state and local government web resources and services.